N6GIW Weather Reports


Display with metric or nautical units.
time (UTC)temp
F
wind
direction
speed
MPH
gust
MPH
rain 1hr
in
rain 24hr
in
rain mn
in
humidity
%
barometer
mb
20260504211003 66 208 11.0 18.0 0.00 0.00 0.00 35 1018.6
20260504204503 66 208 10.0 16.0 0.00 0.00 0.00 33 1018.8
20260504204003 66 167 10.0 14.0 0.00 0.00 0.00 34 1018.6
20260504203503 66 194 12.0 17.0 0.00 0.00 0.00 34 1018.6
20260504203004 65 167 11.0 20.0 0.00 0.00 0.00 35 1018.6
20260504202502 66 199 9.0 16.0 0.00 0.00 0.00 35 1019.0
20260504202004 66 175 13.0 20.0 0.00 0.00 0.00 35 1018.9
20260504201502 66 201 8.0 15.0 0.00 0.00 0.00 35 1018.9
20260504200503 66 138 8.0 12.0 0.00 0.00 0.00 35 1019.1
20260504195503 65 226 6.0 16.0 0.00 0.00 0.00 35 1019.1
20260504194503 65 219 6.0 12.0 0.00 0.00 0.00 35 1019.2
20260504194003 64 165 6.0 13.0 0.00 0.00 0.00 36 1019.3
20260504193502 64 203 2.0 7.0 0.00 0.00 0.00 32 1019.2
20260504193003 64 189 4.0 17.0 0.00 0.00 0.00 34 1019.2
20260504192502 64 154 6.0 12.0 0.00 0.00 0.00 32 1019.2
20260504192003 64 176 8.0 15.0 0.00 0.00 0.00 33 1019.0
20260504191504 64 181 2.0 14.0 0.00 0.00 0.00 35 1019.3
20260504191002 65 174 5.0 15.0 0.00 0.00 0.00 35 1019.3
20260504190503 65 134 4.0 8.0 0.00 0.00 0.00 35 1019.4
20260504190003 65 126 1.0 3.0 0.00 0.00 0.00 36 1019.5
20260504185004 64 165 2.0 9.0 0.00 0.00 0.00 36 1019.8
20260504184003 64 103 1.0 3.0 0.00 0.00 0.00 37 1019.5
20260504183503 64 132 2.0 5.0 0.00 0.00 0.00 36 1019.4
20260504183003 64 150 2.0 7.0 0.00 0.00 0.00 36 1019.2
20260504182503 63 99 0.0 3.0 0.00 0.00 0.00 37 1019.5
20260504182003 63 95 1.0 3.0 0.00 0.00 0.00 38 1019.5
20260504181503 63 138 0.0 2.0 0.00 0.00 0.00 38 1019.5
20260504181003 62 110 0.0 2.0 0.00 0.00 0.00 38 1019.5
20260504180503 62 103 1.0 3.0 0.00 0.00 0.00 39 1019.6
20260504180002 62 70 1.0 9.0 0.00 0.00 0.00 39 1019.4
20260504175502 62 90 1.0 3.0 0.00 0.00 0.00 40 1019.3
20260504175003 62 90 1.0 5.0 0.00 0.00 0.00 39 1019.3
20260504174003 61 93 2.0 3.0 0.00 0.00 0.00 40 1019.2
20260504173503 61 152 2.0 7.0 0.00 0.00 0.00 40 1019.1
20260504173004 61 109 0.0 2.0 0.00 0.00 0.00 40 1019.0
20260504172502 60 124 0.0 1.0 0.00 0.00 0.00 41 1019.3
20260504172004 60 124 0.0 5.0 0.00 0.00 0.00 42 1019.2
20260504170502 59 166 1.0 3.0 0.00 0.00 0.00 43 1019.2
20260504151004 55 109 0.0 2.0 0.00 0.00 0.00 51 1018.7
20260504150503 55 109 0.0 1.0 0.00 0.00 0.00 51 1018.6
20260504141003 51 205 3.0 3.0 0.00 0.00 0.00 57 1018.6
20260504140503 51 209 1.0 3.0 0.00 0.00 0.00 59 1018.7
20260504130502 47 187 0.0 1.0 0.00 0.00 0.00 60 1017.9
20260504110503 49 249 0.0 1.0 0.00 0.00 0.00 58 1017.4
20260504100502 52 253 0.0 0.0 0.00 0.00 0.00 55 1017.1
20260504082003 54 209 5.0 8.0 0.00 0.00 0.00 55 1018.1
20260504081004 54 207 6.0 12.0 0.00 0.00 0.00 54 1018.2
20260504080503 54 211 8.0 10.0 0.00 0.00 0.00 53 1017.8
20260504050503 59 240 0.0 3.0 0.00 0.00 0.00 44 1016.5
20260504045504 59 225 0.0 1.0 0.00 0.00 0.00 42 1016.3
20260504045003 60 236 0.0 1.0 0.00 0.00 0.00 41 1016.3
20260504044504 60 225 0.0 0.0 0.00 0.00 0.00 40 1016.3
20260504044003 60 230 0.0 0.0 0.00 0.00 0.00 41 1016.3
20260504042502 61 228 0.0 0.0 0.00 0.00 0.00 38 1016.3
20260504041503 62 237 0.0 0.0 0.00 0.00 0.00 33 1016.0
20260504041003 62 214 0.0 0.0 0.00 0.00 0.00 32 1016.0
20260504040503 62 218 0.0 0.0 0.00 0.00 0.00 32 1015.8
20260504035503 62 255 0.0 0.0 0.00 0.00 0.00 34 1016.0
20260504035003 62 249 0.0 0.0 0.00 0.00 0.00 36 1016.0
20260504034504 62 195 0.0 0.0 0.00 0.00 0.00 35 1015.9
20260504034003 62 187 0.0 0.0 0.00 0.00 0.00 34 1015.8
20260504033503 63 172 0.0 0.0 0.00 0.00 0.00 31 1016.0
20260504033003 63 183 0.0 0.0 0.00 0.00 0.00 29 1015.7
20260504032503 63 196 0.0 0.0 0.00 0.00 0.00 29 1015.9
20260504032003 63 186 0.0 0.0 0.00 0.00 0.00 28 1016.0
20260504031004 64 178 0.0 0.0 0.00 0.00 0.00 25 1015.8
20260504030503 64 169 0.0 0.0 0.00 0.00 0.00 24 1015.6
20260504025503 65 171 0.0 0.0 0.00 0.00 0.00 24 1015.8
20260504025003 65 165 0.0 0.0 0.00 0.00 0.00 25 1015.8
20260504024504 66 170 0.0 0.0 0.00 0.00 0.00 24 1015.7
20260504024003 66 180 0.0 0.0 0.00 0.00 0.00 23 1015.6
20260504023503 67 184 0.0 0.0 0.00 0.00 0.00 23 1015.7
20260504023003 67 167 0.0 0.0 0.00 0.00 0.00 23 1015.9
20260504022003 68 198 0.0 0.0 0.00 0.00 0.00 21 1015.7
20260504021504 69 190 0.0 0.0 0.00 0.00 0.00 19 1015.5
20260504021003 70 181 1.0 9.0 0.00 0.00 0.00 19 1015.5
20260504020534 70 202 7.0 10.0 0.00 0.00 0.00 18 1015.7
20260504020026 71 193 6.0 10.0 0.00 0.00 0.00 16 1015.6
20260504015502 71 191 3.0 9.0 0.00 0.00 0.00 16 1015.5
20260504015003 72 165 6.0 10.0 0.00 0.00 0.00 15 1015.7
20260504014503 72 213 3.0 9.0 0.00 0.00 0.00 15 1015.7
20260504014004 73 199 3.0 7.0 0.00 0.00 0.00 16 1015.7
20260504013503 73 152 3.0 8.0 0.00 0.00 0.00 17 1015.7
20260504013003 73 216 6.0 12.0 0.00 0.00 0.00 15 1015.5
20260504012503 73 208 6.0 12.0 0.00 0.00 0.00 15 1015.7
20260504012003 74 206 10.0 14.0 0.00 0.00 0.00 14 1015.5
20260504011504 74 196 9.0 17.0 0.00 0.00 0.00 14 1015.4
20260504011003 75 200 12.0 18.0 0.00 0.00 0.00 14 1015.3
20260504010503 75 203 10.0 17.0 0.00 0.00 0.00 14 1015.2
20260504005503 75 190 10.0 22.0 0.00 0.00 0.00 16 1015.2
20260504005003 75 199 13.0 20.0 0.00 0.00 0.00 17 1015.0
20260504004504 75 202 14.0 25.0 0.00 0.00 0.00 18 1014.9
20260504004003 75 212 13.0 20.0 0.00 0.00 0.00 19 1014.9
20260504003503 75 222 13.0 20.0 0.00 0.00 0.00 19 1014.8
20260504002003 75 193 17.0 32.0 0.00 0.00 0.00 21 1014.7
20260504001503 75 212 10.0 25.0 0.00 0.00 0.00 22 1014.7
20260504000003 76 202 18.0 31.0 0.00 0.00 0.00 24 1014.8
20260503235003 76 206 19.0 29.0 0.00 0.00 0.00 25 1015.0
20260503234503 77 219 18.0 29.0 0.00 0.00 0.00 24 1014.9
20260503234003 77 213 18.0 24.0 0.00 0.00 0.00 25 1014.9
20260503233502 77 210 20.0 28.0 0.00 0.00 0.00 25 1014.9
20260503233004 77 209 16.0 26.0 0.00 0.00 0.00 25 1015.1
20260503232504 78 214 16.0 24.0 0.00 0.00 0.00 25 1015.3
20260503232003 78 232 13.0 26.0 0.00 0.00 0.00 25 1015.6
20260503231503 78 228 16.0 25.0 0.00 0.00 0.00 25 1015.6
20260503231003 78 205 14.0 26.0 0.00 0.00 0.00 25 1015.9
20260503230503 78 201 17.0 23.0 0.00 0.00 0.00 25 1015.9
20260503230003 78 213 15.0 22.0 0.00 0.00 0.00 25 1016.0
20260503225504 78 206 13.0 20.0 0.00 0.00 0.00 25 1016.1
20260503224503 79 196 13.0 20.0 0.00 0.00 0.00 25 1016.1
20260503224003 79 214 12.0 20.0 0.00 0.00 0.00 24 1016.1
20260503223504 79 221 10.0 20.0 0.00 0.00 0.00 24 1016.3
20260503223003 80 193 13.0 21.0 0.00 0.00 0.00 24 1016.2
20260503222503 79 198 12.0 18.0 0.00 0.00 0.00 24 1016.3
20260503222003 80 221 11.0 23.0 0.00 0.00 0.00 24 1016.3
20260503221503 80 215 11.0 20.0 0.00 0.00 0.00 24 1016.3
20260503221003 80 187 11.0 18.0 0.00 0.00 0.00 24 1016.3
20260503220503 79 220 14.0 21.0 0.00 0.00 0.00 24 1016.3
20260503220003 79 211 14.0 26.0 0.00 0.00 0.00 24 1016.4
20260503215004 80 197 13.0 20.0 0.00 0.00 0.00 24 1016.4
20260503214503 80 213 12.0 22.0 0.00 0.00 0.00 23 1016.3
20260503214003 80 220 13.0 20.0 0.00 0.00 0.00 23 1016.5
20260503213503 80 220 15.0 22.0 0.00 0.00 0.00 22 1016.5
20260503213003 80 204 13.0 20.0 0.00 0.00 0.00 22 1016.6
20260503212503 81 213 12.0 20.0 0.00 0.00 0.00 22 1016.7
20260503212003 81 216 12.0 26.0 0.00 0.00 0.00 22 1016.9